Regional Weather Roundup
Issued by NWS

Home | Current Version | Previous Version | Graphics & Text | Print | Product List | Glossary On
Versions: 1 2 3 4 5 6 7 8 9 10 11 12 13 14 15 16 17 18 19 20 21 22 23 24 25 26 27 28 29 30 31 32 33 34 35 36 37 38 39 40 41 42 43 44 45 46 47 48 49 50
370
ASUS45 KSLC 171510
RWRUT

UTAH REGIONAL WEATHER ROUNDUP
NATIONAL WEATHER SERVICE SALT LAKE CITY UT
800 AM MST WED JAN 17 2018

UTZ001>011-023>025-171600-

NORTHERN UTAH

CITY           SKY/WX    TMP DP  RH WIND       PRES   REMARKS
BRIGHAM CITY   PTCLDY    32  28  84 CALM      30.40R
DUGWAY         PTCLDY    17  15  93 E5        30.40R WCI  10
HILL AFB       CLEAR     31  21  67 E14       30.37S WCI  21
LOGAN          CLOUDY    34  27  75 CALM      30.39R
OGDEN          CLEAR     32  22  66 S9        30.38R WCI  24
SALT LAKE CITY PTCLDY    32  27  81 SE5       30.39R WCI  27
TOOELE VALLEY  CLEAR     27  23  86 S6        30.40R WCI  20
WENDOVER       PTCLDY    21  18  88 W5        30.40R WCI  15
HEBER CITY       N/A     19  18  93 SE3       30.38S
WEST JORDAN    CLEAR     28  25  91 CALM      30.40R

$$

UTZ011>015-024>027-171600-

CENTRAL/NORTHEAST UTAH

CITY           SKY/WX    TMP DP  RH WIND       PRES   REMARKS
PROVO AIRPORT  CLEAR     23  21  92 S3        30.41R
MOAB/CANYONLAN CLEAR     26  19  74 W5        30.39R WCI  20
DELTA          PTCLDY    27  25  93 CALM      30.38R
PRICE          CLEAR     22  18  85 NW5       30.37R WCI  16
ROOSEVELT      PTCLDY    18  12  79 CALM      30.45R
VERNAL         PTCLDY    19  11  70 CALM      30.41S

$$

UTZ013>016-019>022-027-171600-

SOUTHERN UTAH

CITY           SKY/WX    TMP DP  RH WIND       PRES   REMARKS
BRYCE CANYON   CLEAR     21  18  88 W3        30.37R
CEDAR CITY     CLEAR     24  22  91 CALM      30.34R
MILFORD        CLEAR     25  23  92 W6        30.37R WCI  18
ST GEORGE      SUNNY     39  28  64 CALM      30.34R
HANKSVILLE     PTCLDY    21   9  58 NW3       30.43R
KANAB          CLEAR     32  23  69 N9        30.38R WCI  24
BLANDING         N/A     23  19  84 NW7       30.43S WCI  14

$$

REGIONAL REPORTS     COLORADO/ARIZONA

CITY           SKY/WX    TMP DP  RH WIND       PRES   REMARKS
CRAIG, CO      CLEAR      4  -2  76 CALM      30.42R
GRAND JUNCTION CLEAR     19  12  74 SE12      30.42R WCI   7
RIFLE, CO      CLEAR     16   9  74 CALM      30.45R
MONTROSE, CO   CLEAR     16   8  71 S6        30.45R WCI   7
CORTEZ, CO     MOCLDY    18  15  88 E6        30.37R WCI  10
COLORADO CITY    N/A     27  23  86 CALM      30.36S
PAGE, AZ       CLEAR     33  19  56 SW5       30.36R WCI  29
GRAND CANYON   CLEAR     20  17  88 CALM      30.35R
KINGMAN, AZ    CLEAR     37  30  75 E7        30.27R WCI  32
FLAGSTAFF, AZ  CLEAR     20  17  88 CALM      30.34R

$$

REGIONAL REPORTS    NEVADA/IDAHO/WYOMING

CITY           SKY/WX    TMP DP  RH WIND       PRES   REMARKS
LAS VEGAS, NV  PTCLDY    47  36  65 SW3       30.27R
ELY, NY        PTCLDY    20  18  92 S10       30.37R WCI   9
ELKO, NV       PTCLDY    23  21  92 E3        30.36R
POCATELLO, ID  CLEAR     26  24  92 SW3       30.40S
BURLEY, ID     CLEAR     30  27  88 NE6       30.37R WCI  24
FORT BRIDGER,    N/A     29  22  75 W12       30.38S WCI  19
EVANSTON, WY   PTCLDY    20  16  84 S5        30.37R WCI  13
ROCK SPRINGS,  CLEAR     20  12  71 W10       30.34S WCI   9

$$




USA.gov is the U.S. government's official web portal to all federal, state and local government web resources and services.